Location: Chagrin Falls Park
(41.4139°N, 81.3865°W)
Time: 01:33:37
(UTC+00:00)

STARLINK-2704 - Pass Details

Date: 31 July 2021
Orbit: 546 x 548 km, 53.1° (Epoch: 21 September)

Event Time Altitude Azimuth Distance (km) Brightness Sun altitude
Rises 02:30:42 0° 301° (WNW) 2,719 8.7 -17.1°
Reaches altitude 10° 02:33:04 10° 292° (WNW) 1,822 7.3 -17.4°
Maximum altitude 02:36:48 33° 228° (SW) 927 4.7 -17.9°
Enters shadow 02:38:10 26° 190° (S) 1,086 4.8 -18.1°
